Milwaukee, WI

9:54 AM CDT on September 19, 2018 (GMT -0500)
Gen Mitchell International

Weather History for KMKE - July, 2018

Change the Weather History Date:

Thursday, July 12, 2018

  Actual Average Record
Temperature  
Mean Temperature 77 °F 72 °F  
Max Temperature 87 °F 80 °F 97 °F (1930)
Min Temperature 66 °F 64 °F 50 °F (1975)
Degree Days  
Heating Degree Days 0 0  
Month to date heating degree days 0 4  
Since 1 June heating degree days 60 88  
Since 1 July heating degree days 0 4  
Cooling Degree Days 12 7  
Month to date cooling degree days 126 83  
Year to date cooling degree days 343 233  
Since 1 June cooling degree days 244 203  
Growing Degree Days 26 (Base 50)    
Moisture  
Dew Point 64 °F    
Average Humidity 65    
Maximum Humidity 87    
Minimum Humidity 43    
Precipitation  
Precipitation 0.05 in 0.12 in 1.95 in (1956)
Month to date precipitation 0.28 1.49  
Year to date precipitation 20.98 18.03  
Snow  
Snow 0.00 in 0.00 in 0.00 in ()
Month to date snowfall 0.0 0.0  
Since 1 June snowfall 0.0 0.0  
Since 1 July snowfall 0.0 0.0  
Snow Depth 0.00 in    
Sea Level Pressure  
Sea Level Pressure 30.11 in    
Wind  
Wind Speed 11 mph (South)    
Max Wind Speed 22 mph    
Max Gust Speed 30 mph    
Visibility 10 miles    
Events      
T = Trace of Precipitation, MM = Missing Value Source: NWS Daily Summary

Daily Weather History Graph

Daily Weather History Graph

Search for Another Location

Airport or City:

Astronomy

Jul. 12, 2018 Rise Set
Actual Time 5:23 AM CDT 8:30 PM CDT
Civil Twilight 4:49 AM CDT 9:04 PM CDT
Nautical Twilight 4:05 AM CDT 9:48 PM CDT
Astronomical Twilight 3:12 AM CDT 10:40 PM CDT
Moon 4:51 AM CDT (7/12) 8:12 PM CDT (7/12)
Length of Visible Light 16h 15m
Length of Day
15h 06m
Waning Crescent, 0% of the Moon is Illuminated
Jul 12
Waning Crescent
Jul 12
New
Jul 19
First Quarter
Jul 27
Full
Aug 4
Last Quarter

Hourly Weather History & Observations

Time (CDT) Temp. Heat Index Dew Point Humidity Pressure Visibility Wind Dir Wind Speed Gust Speed Precip Events Conditions
12:52 AM 69.1 °F - 64.0 °F 84% 30.15 in 10.0 mi ESE 4.6 mph - N/A   Clear
1:52 AM 69.1 °F - 62.1 °F 78% 30.15 in 10.0 mi Calm Calm - N/A   Clear
2:52 AM 69.1 °F - 63.0 °F 81% 30.14 in 10.0 mi SSE 5.8 mph - N/A   Clear
3:52 AM 68.0 °F - 62.1 °F 81% 30.12 in 10.0 mi South 4.6 mph - N/A   Clear
4:52 AM 66.0 °F - 62.1 °F 87% 30.12 in 10.0 mi SSE 4.6 mph - N/A   Partly Cloudy
5:52 AM 66.0 °F - 62.1 °F 87% 30.13 in 10.0 mi ESE 5.8 mph - N/A   Mostly Cloudy
6:52 AM 69.1 °F - 64.9 °F 87% 30.13 in 10.0 mi SSE 4.6 mph - N/A   Mostly Cloudy
7:52 AM 73.9 °F - 66.0 °F 76% 30.16 in 10.0 mi South 10.4 mph - N/A   Mostly Cloudy
8:52 AM 75.9 °F - 64.9 °F 69% 30.17 in 10.0 mi SSW 10.4 mph - N/A   Mostly Cloudy
9:52 AM 80.1 °F 82.1 °F 66.0 °F 62% 30.15 in 10.0 mi SSW 8.1 mph - N/A   Overcast
10:52 AM 82.0 °F 83.0 °F 62.1 °F 51% 30.15 in 10.0 mi SSW 15.0 mph 23.0 mph N/A   Overcast
11:52 AM 82.9 °F 83.3 °F 61.0 °F 47% 30.14 in 10.0 mi SW 18.4 mph - N/A   Overcast
12:52 PM 84.9 °F 85.9 °F 63.0 °F 48% 30.13 in 10.0 mi SSW 18.4 mph 26.5 mph N/A   Mostly Cloudy
1:52 PM 84.0 °F 84.9 °F 63.0 °F 49% 30.16 in 10.0 mi West 11.5 mph 18.4 mph N/A   Mostly Cloudy
2:52 PM 80.1 °F 83.6 °F 71.1 °F 74% 30.12 in 10.0 mi ESE 11.5 mph - 0.05 in   Mostly Cloudy
3:52 PM 82.9 °F 85.8 °F 68.0 °F 60% 30.09 in 10.0 mi SE 8.1 mph - N/A   Mostly Cloudy
4:52 PM 84.9 °F 86.1 °F 64.0 °F 49% 30.06 in 10.0 mi South 16.1 mph 25.3 mph N/A   Mostly Cloudy
5:52 PM 87.1 °F 87.5 °F 62.1 °F 43% 30.07 in 10.0 mi SW 16.1 mph 27.6 mph N/A   Mostly Cloudy
6:52 PM 84.9 °F 85.9 °F 63.0 °F 48% 30.06 in 10.0 mi SSW 16.1 mph 25.3 mph N/A   Mostly Cloudy
7:52 PM 82.9 °F 84.4 °F 64.0 °F 53% 30.04 in 10.0 mi South 13.8 mph - N/A   Mostly Cloudy
8:52 PM 81.0 °F 82.5 °F 64.0 °F 56% 30.05 in 10.0 mi SSW 9.2 mph - N/A   Scattered Clouds
9:52 PM 80.1 °F 81.7 °F 64.0 °F 58% 30.09 in 10.0 mi SSW 8.1 mph - N/A   Scattered Clouds
10:52 PM 79.0 °F - 63.0 °F 58% 30.09 in 10.0 mi SSW 9.2 mph - N/A   Mostly Cloudy
11:52 PM 78.1 °F - 64.0 °F 62% 30.08 in 10.0 mi SSW 13.8 mph - N/A   Scattered Clouds